Weather History for Mount Carmel, IL

Change the Weather History Date:

Thursday, November 14, 2013

  Actual Average (KLWV) Record (KLWV)
Temperature  
Mean Temperature 42 °F 47 °F  
Max Temperature 55 °F 57 °F 74 °F (2011)
Min Temperature 30 °F 38 °F 18 °F (2014)
Degree Days  
Heating Degree Days 22 18  
Month to date heating degree days 214  
Since 1 July heating degree days 511  
Cooling Degree Days 0 0  
Month to date cooling degree days 0  
Year to date cooling degree days 1386  
Moisture  
Dew Point 23 °F    
Average Humidity 50    
Maximum Humidity 75    
Minimum Humidity 23    
Precipitation  
Precipitation 0.00 in 0.14 in 2.62 in (1993)
Month to date precipitation 1.71  
Year to date precipitation 38.23  
Sea Level Pressure  
Sea Level Pressure 30.24 in    
Wind  
Wind Speed 9 mph (SSW)    
Max Wind Speed 18 mph    
Max Gust Speed 24 mph    
Visibility 10 miles    
Events      
T = Trace of Precipitation, MM = Missing Value Source: NWS Daily Summary

Daily Weather History Graph

Daily Weather History Graph

Search for Another Location

Airport:

Trip Planner

Search our weather history database for the weather conditions in past years. The results will help you decide how hot, cold, wet, or windy it might be!

Date:

Astronomy

Nov. 14, 2013 Rise Set
Actual Time 6:32 AM CST 4:38 PM CST
Civil Twilight 6:03 AM CST 5:06 PM CST
Nautical Twilight 5:31 AM CST 5:38 PM CST
Astronomical Twilight 5:00 AM CST 6:09 PM CST
Moon 2:57 PM CST (11/14) 3:28 AM CST (11/14)
Length of Visible Light 11h 02m
Length of Day
10h 06m
Waxing Gibbous, 92% of the Moon is Illuminated
Nov 14
Waxing Gibbous
Nov 17
Full
Nov 25
Last Quarter
Dec 2
New
Dec 9
First Quarter

Hourly Weather History & Observations

Time (CST) Temp. Windchill Dew Point Humidity Pressure Visibility Wind Dir Wind Speed Gust Speed Precip Events Conditions
12:15 AM 32.0 °F 27.5 °F 24.8 °F 75% 30.38 in 10.0 mi South 4.6 mph - N/A   Clear
12:35 AM 32.0 °F 27.5 °F 23.0 °F 69% 30.37 in 10.0 mi South 4.6 mph - N/A   Clear
12:55 AM 32.0 °F 25.6 °F 23.0 °F 69% 30.37 in 10.0 mi South 6.9 mph - N/A   Clear
1:15 AM 32.0 °F 24.8 °F 23.0 °F 69% 30.36 in 10.0 mi SSW 8.1 mph - N/A   Clear
1:35 AM 32.0 °F 24.2 °F 23.0 °F 69% 30.36 in 10.0 mi SSW 9.2 mph - N/A   Clear
1:55 AM 32.0 °F 24.8 °F 23.0 °F 69% 30.37 in 10.0 mi SSW 8.1 mph - N/A   Clear
2:15 AM 32.0 °F 24.2 °F 23.0 °F 69% 30.36 in 10.0 mi South 9.2 mph - N/A   Clear
2:35 AM 32.0 °F 24.8 °F 23.0 °F 69% 30.36 in 10.0 mi SSW 8.1 mph - N/A   Clear
2:55 AM 32.0 °F 25.6 °F 23.0 °F 69% 30.36 in 10.0 mi SSW 6.9 mph - N/A   Clear
3:15 AM 32.0 °F 25.6 °F 23.0 °F 69% 30.35 in 10.0 mi SSW 6.9 mph - N/A   Clear
3:35 AM 32.0 °F 25.6 °F 23.0 °F 69% 30.34 in 10.0 mi SSW 6.9 mph - N/A   Clear
3:55 AM 32.0 °F 24.8 °F 23.0 °F 69% 30.34 in 10.0 mi SSW 8.1 mph - N/A   Clear
4:15 AM 32.0 °F 26.4 °F 23.0 °F 69% 30.34 in 10.0 mi SSW 5.8 mph - N/A   Clear
4:35 AM 30.2 °F 23.4 °F 23.0 °F 75% 30.34 in 10.0 mi SSW 6.9 mph - N/A   Clear
4:55 AM 32.0 °F 25.6 °F 23.0 °F 69% 30.34 in 10.0 mi SSW 6.9 mph - N/A   Clear
5:15 AM 32.0 °F 25.6 °F 23.0 °F 69% 30.33 in 10.0 mi SSW 6.9 mph - N/A   Clear
5:35 AM 32.0 °F 25.6 °F 23.0 °F 69% 30.33 in 10.0 mi SSW 6.9 mph - N/A   Clear
5:55 AM 32.0 °F 25.6 °F 23.0 °F 69% 30.32 in 10.0 mi SSW 6.9 mph - N/A   Clear
6:15 AM 32.0 °F 24.2 °F 23.0 °F 69% 30.32 in 10.0 mi SSW 9.2 mph - N/A   Clear
6:35 AM 32.0 °F 24.8 °F 23.0 °F 69% 30.32 in 10.0 mi SSW 8.1 mph - N/A   Clear
6:55 AM 32.0 °F 24.8 °F 23.0 °F 69% 30.32 in 10.0 mi SSW 8.1 mph - N/A   Clear
7:15 AM 33.8 °F 28.6 °F 24.8 °F 70% 30.32 in 10.0 mi SSW 5.8 mph - N/A   Clear
7:35 AM 33.8 °F 27.0 °F 26.6 °F 75% 30.32 in 10.0 mi SSW 8.1 mph - N/A   Clear
7:55 AM 35.6 °F 28.6 °F 26.6 °F 70% 30.33 in 10.0 mi SSW 9.2 mph - N/A   Clear
8:15 AM 37.4 °F 29.8 °F 26.6 °F 65% 30.33 in 10.0 mi SSW 11.5 mph - N/A   Clear
8:35 AM 37.4 °F 30.3 °F 26.6 °F 65% 30.33 in 10.0 mi SSW 10.4 mph - N/A   Clear
8:55 AM 41.0 °F 33.1 °F 26.6 °F 57% 30.32 in 10.0 mi SW 15.0 mph 18.4 mph N/A   Clear
9:15 AM 42.8 °F 35.4 °F 26.6 °F 53% 30.31 in 10.0 mi SSW 15.0 mph 23.0 mph N/A   Clear
9:35 AM 44.6 °F 38.1 °F 26.6 °F 49% 30.31 in 10.0 mi SW 13.8 mph 18.4 mph N/A   Clear
9:55 AM 44.6 °F 38.8 °F 24.8 °F 46% 30.31 in 10.0 mi SW 11.5 mph - N/A   Clear
10:15 AM 46.4 °F 39.8 °F 23.0 °F 40% 30.30 in 10.0 mi SW 16.1 mph 24.2 mph N/A   Clear
10:35 AM 48.2 °F - 23.0 °F 37% 30.29 in 10.0 mi SSW 18.4 mph - N/A   Clear
10:55 AM 50.0 °F - 21.2 °F 32% 30.28 in 10.0 mi SSW 15.0 mph - N/A   Clear
11:15 AM 50.0 °F - 23.0 °F 35% 30.27 in 10.0 mi SSW 15.0 mph 21.9 mph N/A   Clear
11:35 AM 51.8 °F - 21.2 °F 30% 30.25 in 10.0 mi SSW 15.0 mph - N/A   Clear
11:55 AM 51.8 °F - 21.2 °F 30% 30.23 in 10.0 mi SSW 15.0 mph - N/A   Clear
12:15 PM 53.6 °F - 21.2 °F 28% 30.23 in 10.0 mi South 12.7 mph 21.9 mph N/A   Clear
12:35 PM 53.6 °F - 23.0 °F 30% 30.21 in 10.0 mi South 12.7 mph 19.6 mph N/A   Clear
12:55 PM 53.6 °F - 21.2 °F 28% 30.20 in 10.0 mi South 15.0 mph - N/A   Clear
1:15 PM 55.4 °F - 21.2 °F 26% 30.19 in 10.0 mi SSW 18.4 mph 24.2 mph N/A   Clear
1:35 PM 55.4 °F - 21.2 °F 26% 30.18 in 10.0 mi South 17.3 mph 21.9 mph N/A   Clear
1:55 PM 55.4 °F - 19.4 °F 25% 30.17 in 10.0 mi SSW 15.0 mph 20.7 mph N/A   Clear
2:15 PM 55.4 °F - 19.4 °F 25% 30.17 in 10.0 mi SSW 18.4 mph - N/A   Clear
2:35 PM 55.4 °F - 19.4 °F 25% 30.16 in 10.0 mi SSW 11.5 mph 23.0 mph N/A   Clear
2:55 PM 55.4 °F - 17.6 °F 23% 30.16 in 10.0 mi SSW 16.1 mph 21.9 mph N/A   Clear
3:15 PM 55.4 °F - 21.2 °F 26% 30.16 in 10.0 mi South 16.1 mph - N/A   Clear
3:35 PM 53.6 °F - 23.0 °F 30% 30.15 in 10.0 mi South 11.5 mph - N/A   Clear
3:55 PM 53.6 °F - 21.2 °F 28% 30.15 in 10.0 mi South 12.7 mph - N/A   Clear
4:15 PM 51.8 °F - 21.2 °F 30% 30.14 in 10.0 mi South 11.5 mph - N/A   Clear
4:35 PM 50.0 °F - 21.2 °F 32% 30.14 in 10.0 mi South 11.5 mph - N/A   Clear
4:55 PM 50.0 °F - 21.2 °F 32% 30.15 in 10.0 mi South 9.2 mph - N/A   Clear
5:15 PM 46.4 °F 42.4 °F 23.0 °F 40% 30.14 in 10.0 mi South 8.1 mph - N/A   Clear
5:35 PM 46.4 °F 41.9 °F 23.0 °F 40% 30.14 in 10.0 mi South 9.2 mph - N/A   Clear
5:55 PM 44.6 °F 40.2 °F 23.0 °F 43% 30.14 in 10.0 mi South 8.1 mph - N/A   Clear
6:15 PM 44.6 °F 39.7 °F 24.8 °F 46% 30.14 in 10.0 mi South 9.2 mph - N/A   Clear
6:35 PM 44.6 °F 39.7 °F 24.8 °F 46% 30.14 in 10.0 mi South 9.2 mph - N/A   Clear
6:55 PM 44.6 °F 41.4 °F 24.8 °F 46% 30.14 in 10.0 mi SSW 5.8 mph - N/A   Clear
7:15 PM 46.4 °F 42.4 °F 23.0 °F 40% 30.14 in 10.0 mi SSW 8.1 mph - N/A   Clear
7:35 PM 46.4 °F 41.9 °F 23.0 °F 40% 30.14 in 10.0 mi SSW 9.2 mph - N/A   Clear
7:55 PM 44.6 °F 40.7 °F 23.0 °F 43% 30.14 in 10.0 mi SSW 6.9 mph - N/A   Clear
8:15 PM 44.6 °F 39.7 °F 23.0 °F 43% 30.14 in 10.0 mi SSW 9.2 mph - N/A   Clear
8:35 PM 44.6 °F 40.2 °F 24.8 °F 46% 30.14 in 10.0 mi SSW 8.1 mph - N/A   Clear
8:55 PM 42.8 °F 41.1 °F 24.8 °F 49% 30.14 in 10.0 mi SW 3.5 mph - N/A   Clear
9:15 PM 42.8 °F 41.1 °F 26.6 °F 53% 30.14 in 10.0 mi South 3.5 mph - N/A   Clear
9:35 PM 42.8 °F 39.3 °F 24.8 °F 49% 30.13 in 10.0 mi South 5.8 mph - N/A   Clear
9:55 PM 42.8 °F 40.1 °F 23.0 °F 46% 30.14 in 10.0 mi South 4.6 mph - N/A   Clear
10:15 PM 42.8 °F 39.3 °F 23.0 °F 46% 30.13 in 10.0 mi SSW 5.8 mph - N/A   Clear
10:35 PM 44.6 °F 41.4 °F 23.0 °F 43% 30.14 in 10.0 mi SSW 5.8 mph - N/A   Clear
10:55 PM 42.8 °F 39.3 °F 24.8 °F 49% 30.13 in 10.0 mi SSW 5.8 mph - N/A   Clear
11:15 PM 42.8 °F 39.3 °F 24.8 °F 49% 30.12 in 10.0 mi SSW 5.8 mph - N/A   Clear
11:35 PM 44.6 °F 40.7 °F 26.6 °F 49% 30.13 in 10.0 mi SSW 6.9 mph - N/A   Clear
11:55 PM 44.6 °F 40.7 °F 24.8 °F 46% 30.13 in 10.0 mi SSW 6.9 mph - N/A   Clear